Regional Weather Roundup
Issued by NWS

Home | Current Version | Previous Version | Text Only | Print | Product List | Glossary On
Versions: 1 2 3 4 5 6 7 8 9 10 11 12 13 14 15 16 17 18 19 20 21 22 23 24 25 26 27 28 29 30 31 32 33 34 35 36 37 38 39 40 41 42 43 44 45 46 47 48 49 50
000
ASUS43 KDTX 251810
RWRMI
MICHIGAN HOURLY REGIONAL WEATHER ROUNDUP
NATIONAL WEATHER SERVICE DETROIT/PONTIAC MI
200 PM EDT MON JUL 25 2016

NOTE: "FAIR" INDICATES FEW OR NO CLOUDS BELOW 12,000 FEET WITH NO
SIGNIFICANT WEATHER AND/OR OBSTRUCTION TO VISIBILITY.

MIZ047>049-052>055-059>063-066>070-074>076-081>083-251900-
SOUTHEAST LOWER MICHIGAN

CITY           SKY/WX    TMP DP  RH WIND       PRES   REMARKS
ADRIAN         MOSUNNY   85  71  63 W8        29.97S HX  90
6HR MIN TEMP:  73; 6HR MAX TEMP:  85;

ALMA           SUNNY     85  65  50 W13       29.95S
ANN ARBOR      MOSUNNY   88  65  46 W10       29.94F HX  90
BAD AXE        MOSUNNY   83  62  48 W13G22    29.91F
CARO           MOSUNNY   87  65  47 W10G16    29.92S
DETROIT CITY   MOSUNNY   88  66  48 W14G21    29.92S HX  90
6HR MIN TEMP:  76; 6HR MAX TEMP:  89;

DETROIT        MOSUNNY   90  64  42 W10       29.93F HX  91
6HR MIN TEMP:  76; 6HR MAX TEMP:  91;

FLINT          MOSUNNY   89  61  38 NW13      29.94R
6HR MIN TEMP:  79; 6HR MAX TEMP:  91;

GROSSE ILE     MOSUNNY   86  73  65 SW10      29.92F HX  92
6HR MIN TEMP:  74; 6HR MAX TEMP:  86;

HOWELL         PTSUNNY   86  61  42 W12G17    29.96S

CITY           SKY/WX    TMP DP  RH WIND       PRES   REMARKS
JACKSON        SUNNY     85  64  49 NW12      29.97S
6HR MIN TEMP:  73; 6HR MAX TEMP:  85;

LAMBERTVILLE   MOSUNNY   85  72  64 W7        29.96F HX  91
6HR MIN TEMP:  74; 6HR MAX TEMP:  85;

LANSING        PTSUNNY   85  64  49 NW9       29.97R
6HR MIN TEMP:  75; 6HR MAX TEMP:  86;

LAPEER         FAIR      86  62  43 W9        29.94R
6HR MIN TEMP:  76; 6HR MAX TEMP:  87;

MASON          MOSUNNY   85  64  47 W12G20    29.96F
MONROE         CLOUDY    84  76  76 SW8G20    29.93F HX  93
6HR MIN TEMP:  74; 6HR MAX TEMP:  84;

MT. CLEMENS    PTSUNNY   88  66  49 W12       29.90S HX  90
6HR MIN TEMP:  78; 6HR MAX TEMP:  88;

PONTIAC        PTSUNNY   88  64  44 W14       29.94S
6HR MIN TEMP:  76; 6HR MAX TEMP:  88;

PORT HURON     PTSUNNY   86  68  54 W6        29.91S
TRI CITIES     MOSUNNY   85  65  51 W10G24    29.93S
6HR MIN TEMP:  74; 6HR MAX TEMP:  86;

MIDLAND        FAIR      86  61  42 W13       29.91F
TROY           MOSUNNY   89  58  35 W15       29.95S
SAGINAW HB     MOSUNNY   86  63  45 W12G18    29.92S
$$
MIZ043>046-050>051-056>058-064>065-071>073-077>080-251900-
SOUTHWEST LOWER MICHIGAN

CITY           SKY/WX    TMP DP  RH WIND       PRES   REMARKS
BATTLE CREEK   SUNNY     82  64  54 NW12      29.99S
6HR MIN TEMP:  72; 6HR MAX TEMP:  83;

BENTON HARBOR  MOSUNNY   80  67  64 NW6       30.01R
6HR MIN TEMP:  75; 6HR MAX TEMP:  80;

BIG RAPIDS     SUNNY     82  60  46 NW7G20    29.96F
6HR MIN TEMP:  71; 6HR MAX TEMP:  82;

COLDWATER      CLOUDY    84  66  54 W10       29.99S
6HR MIN TEMP:  71; 6HR MAX TEMP:  84;

FREMONT        FAIR      84  61  46 NW12      29.97S
HOLLAND        SUNNY     80  69  69 W9        30.00R
6HR MIN TEMP:  73; 6HR MAX TEMP:  81;

GRAND RAPIDS   MOSUNNY   84  63  49 NW15      29.97S
6HR MIN TEMP:  75; 6HR MAX TEMP:  85;

IONIA          FAIR      83  62  49 NW9G18    29.96R
6HR MIN TEMP:  74; 6HR MAX TEMP:  85;

KALAMAZOO      MOSUNNY   85  62  46 NW13      29.99R
LUDINGTON      SUNNY     78  64  61 W8        29.97S
6HR MIN TEMP:  72; 6HR MAX TEMP:  79;

MARSHALL       MOSUNNY   87  65  48 W12       29.97S
6HR MIN TEMP:  73; 6HR MAX TEMP:  87;

MOUNT PLEASANT PTSUNNY   85  62  45 W9G17     29.94S
6HR MIN TEMP:  74; 6HR MAX TEMP:  85;

MUSKEGON       MOSUNNY   83  63  50 W9        29.98S
6HR MIN TEMP:  74; 6HR MAX TEMP:  84;

SOUTH HAVEN    SUNNY     79  68  69 NW8       30.01R
$$
MIZ016>042-251900-
NORTHERN LOWER MICHIGAN

CITY           SKY/WX    TMP DP  RH WIND       PRES   REMARKS
ALPENA         MOSUNNY   86  56  35 W12       29.87S
6HR MIN TEMP:  73; 6HR MAX TEMP:  86;

BEAVER ISLAND  SUNNY     77  61  57 NW10      29.92S
6HR MIN TEMP:  70; 6HR MAX TEMP:  78;

BELLAIRE       SUNNY     77  61  56 NW9G18    29.94R
6HR MIN TEMP:  74; 6HR MAX TEMP:  79;

CADILLAC       SUNNY     82  58  44 W12G17    29.96S
CHARLEVOIX     SUNNY     77  64  63 W14       29.96S
6HR MIN TEMP:  72; 6HR MAX TEMP:  77;

FRANKFORT      SUNNY     79  63  58 W12       29.95S
GAYLORD        SUNNY     79  57  46 W14G24    29.93S
6HR MIN TEMP:  71; 6HR MAX TEMP:  79;

GRAYLING       MOSUNNY   83  57  39 W15G22    29.94S
HARBOR SPRINGS MOSUNNY   74  66  76 SW12G17   29.92R
HOUGHTON LAKE  SUNNY     82  60  47 W13       29.94S
6HR MIN TEMP:  73; 6HR MAX TEMP:  83;

MANISTEE       SUNNY     80  63  55 W10       29.96S
OSCODA         MOSUNNY   87  59  37 W16G23    29.86F
PELLSTON       PTSUNNY   78  61  55 W13       29.91R
6HR MIN TEMP:  71; 6HR MAX TEMP:  79;

ROGERS CITY    MOSUNNY   81  56  41 W16G25    29.88R
TRAVERSE CITY  MOSUNNY   84  57  39 NW13G24   29.91S
6HR MIN TEMP:  75; 6HR MAX TEMP:  85;

$$
MIZ007>008-015-251900-
EASTERN UPPER MICHIGAN

CITY           SKY/WX    TMP DP  RH WIND       PRES   REMARKS
KINROSS        CLOUDY    74  61  63 NW16      29.88R
6HR MIN TEMP:  68; 6HR MAX TEMP:  75;

MACKINAC ISLAN PTSUNNY   74  62  65 W13G25    29.89R
6HR MIN TEMP:  69; 6HR MAX TEMP:  76;

NEWBERRY       CLOUDY    73  61  64 W10G17    29.91R
S. S. MARIE    CLOUDY    71  61  70 W15G21    29.88R
6HR MIN TEMP:  69; 6HR MAX TEMP:  73;

MUNISING         N/A     71  61  70 N17G29    29.93R
6HR MIN TEMP:  70; 6HR MAX TEMP:  72;

$$
MIZ004>006-011>014-085-251900-
CENTRAL UPPER MICHIGAN

CITY           SKY/WX    TMP DP  RH WIND       PRES   REMARKS
MANISTIQUE     MOSUNNY   79  62  55 NW12G20   29.91R
ESCANABA       MOSUNNY   81  57  44 NW12G20   29.91R
6HR MIN TEMP:  66; 6HR MAX TEMP:  81;

MENOMINEE        N/A    N/A N/A N/A N10       29.96
SAWYER-GWINN   MOSUNNY   77  55  47 NW14G25   29.95S
$$
MIZ001>003-009>011-084-251900-
WESTERN UPPER MICHIGAN

CITY           SKY/WX    TMP DP  RH WIND       PRES   REMARKS
IRON MOUNTAIN  MOSUNNY   81  56  42 NW14      29.97R
6HR MIN TEMP:  67; 6HR MAX TEMP:  81;

HOUGHTON       SUNNY     74  58  57 W22G29    29.95F
6HR MIN TEMP:  66; 6HR MAX TEMP:  74;

COPPER HARBOR    N/A     73  57  57 N18G26    29.92S
6HR MIN TEMP:  68; 6HR MAX TEMP:  74;

IRONWOOD       MOSUNNY   75  61  60 NW9G16    29.99F
6HR MIN TEMP:  63; 6HR MAX TEMP:  75;

$$

ABBREVIATIONS USED IN REMARKS
   TC - TEMPERATURE IN CELSIUS
  WCI - WIND CHILL INDEX
   HX - HEAT INDEX
  VSB - VISIBILITY





USA.gov is the U.S. government's official web portal to all federal, state and local government web resources and services.